User: anonymous   Login
Location: Catstown
(52.4386°N, 7.2633°W)
Time: 07:47:24
(UTC+00:00)
Language:

COSMO-SKYMED 1 - Orbit

View from above orbital plane
View from above orbital plane
View from above satellite
View from above satellite

Ground track
Ground track

The orbit data is extracted from the following two-line orbital elements,

1 31598U 07023A   20336.97144070  .00000106  00000-0  19871-4 0  9991
2 31598  97.8823 157.7063 0001481  92.9866 267.1512 14.82156010729648
Epoch (UTC): 01 December 2020 23:18:52
Eccentricity: 0.0001481
inclination: 97.8823°
perigee height: 621 km
apogee height: 623 km
right ascension of ascending node: 157.7063°
argument of perigee: 92.9866°
revolutions per day: 14.82156010
mean anomaly at epoch: 267.1512°
orbit number at epoch: 72964

The dashed part of the orbit path shows where the satellite is in the earth's shadow,  

DLR